Flag for India Weather past 2 weeks in Tiruvarur, Tamil Nadu, India

Now
77 °F

Passing clouds.


Feels Like: 78 °F
Forecast: 78 / 91 °F
Wind: 2 mph from North

Location: Tiruchchirapalli

Current Time: Mar 5, 2015 at 8:19:02 AM

Latest Report: Mar 5, 2015 at 5:40 AM


Visibility: 3 mi

Pressure: 29.86 "Hg

Humidity: 89%

Dew point: 73 °F

Location of TiruvarurLocation

Historic Weather in Tiruvarur — Graph

°F

Tiruvarur temperature yesterday

Maximum temperature yesterday: 97 °F (at 2:40 PM)
Minimum temperature yesterday: 77 °F (at 4:40 AM)
Average temperature yesterday: 87 °F

Past Weeks' High & Low Weather Summary

 TemperatureHumidityPressure
High97 °F (Feb 28, 1:40 PM)94% (Feb 23, 5:40 AM)30.01 "Hg (Feb 23, 5:40 AM)
Low68 °F (Feb 20, 3:40 AM)25% (Feb 24, 3:40 PM)29.71 "Hg (Feb 27, 4:40 PM)
Average83 °F63%29.87 "Hg
* Reported Feb 18 5:40 AM — Mar 5 5:40 AM, Tiruvarur, Weather by CustomWeather, © 2015

Note: Actual official high and low records may vary slightly from our data, if they occured in-between our weather recording intervals... More about our weather records

Advertising

Tiruvarur weather history for previous 24 hours

 ConditionsComfort  
Time TempWeatherWind HumidityBarometerVisibility
5:40 AM
Thu, Mar 5
77 °FPassing clouds.2 mph89%29.86 "Hg3 mi
4:40 AM79 °FHaze.2 mphN/AN/A4 mi
2:40 AM79 °FPassing clouds.2 mph84%29.86 "Hg4 mi
1:40 AM81 °FPassing clouds.3 mph84%29.86 "Hg4 mi
12:40 AM82 °FPassing clouds.2 mph79%29.89 "Hg4 mi
11:40 PM
Wed, Mar 4
82 °FPassing clouds.2 mph62%29.92 "Hg4 mi
10:40 PM82 °FPassing clouds.2 mph62%29.92 "Hg4 mi
9:40 PM84 °FPassing clouds.5 mph62%29.92 "Hg4 mi
7:40 PM91 °FPassing clouds.9 mph46%29.83 "Hg4 mi
6:40 PM93 °FScattered clouds.15 mph39%29.80 "Hg4 mi
5:40 PM95 °FScattered clouds.12 mph39%29.77 "Hg5 mi
4:40 PM97 °FScattered clouds.8 mph42%29.77 "Hg5 mi
3:40 PM97 °FScattered clouds.2 mph42%29.77 "Hg5 mi
2:40 PM97 °FScattered clouds.5 mph42%29.80 "Hg5 mi
1:40 PM95 °FScattered clouds.6 mph44%29.83 "Hg5 mi
12:40 PM93 °FScattered clouds.3 mph47%29.86 "Hg5 mi
11:40 AM91 °FScattered clouds.3 mph52%29.89 "Hg5 mi
10:40 AM88 °FScattered clouds.5 mph62%29.92 "Hg4 mi
9:40 AM86 °FScattered clouds.3 mph66%29.92 "Hg4 mi
8:40 AM82 °FHaze.3 mph74%29.92 "Hg3 mi
Weather by CustomWeather, © 2015

See weather overviewHow to use our weather pages